www.pogodaiklimat.ru

Погода и климат >> Архив погоды >> Мьянма >> Тавой


ПОГОДА в Тавое

  • Прогноз погоды в Тавое
  • Монитор погоды в Тавое

АРХИВ ПОГОДЫ в Тавое

Время (UTC), дата Ветер
(напр.,м/с)
 
Видим.   Явления Облачность Т
(С)
Тd
(С)
f
(%)
Тe
(С)
Тes
(С)
Комфортность P
(гПа)
Po
(гПа)
Тmin
(С)
Tmax
(С)
R
(мм)
R24
(мм)
S
(см)
00 19.06 ЮЗ 1 500 м слаб. морось {дождь} 10/8 300 м
[Cb calv As op]
+24.0 +24.0 100 +33 +33 очень
душно
1007.5 1005.5 +23.0 10
03 19.06 штиль 0 500 м слаб. морось {дождь} 10/8 300 м
[Cb calv As op]
+26.0 +25.3 96 +38 +38 очень
душно
1009.0 1007.0
06 19.06 ЮЗ 1 1000 м слаб. морось {дождь} 10/8 300 м
[Cb calv Ac As Cs]
+27.5 +26.9 97 +43 +46 опасность
перегрева
1008.2 1006.3
09 19.06 штиль 0 500 м слаб. морось {дождь} 10/8 300 м
[Cb calv Ac As]
+25.0 +24.2 95 +34 +35 очень
душно
1009.2 1007.2
12 19.06 штиль 0 50 м в посл. час морось 10/6 300 м
[Cb calv Ac As Cs]
+25.0 +24.2 95 +34 +34 очень
душно
1007.0 1005.0 +29.8 32
15 19.06 штиль 0 <100 м 6/4 300 м
[Cb calv Cs]
+24.0 +24.0 100 +33 +33 очень
душно
1007.8 1005.8
00 20.06 штиль 0 200 м слаб. морось {дождь} 10/8 300 м
[Cb calv Ac As Cs]
+24.5 +23.6 95 +33 +33 очень
душно
1008.7 1006.7 +23.0 9
03 20.06 Ю 1 2000 м в посл. час морось 8/5 300 м
[Cb calv Ac cuf Cs]
+28.0 +25.0 84 +40 +46 очень
душно
1010.0 1008.1
06 20.06 ЮВ 3 2000 м 9/5 300 м
[Cb calv Ac As Cs]
+31.0 +23.7 65 +42 +47 опасность
перегрева
1009.3 1007.4
09 20.06 ЮЗ 2 2000 м в посл. час морось 9/5 300 м
[Cb calv Ac As Cs]
+30.0 +23.9 70 +41 +44 опасность
перегрева
1008.5 1006.6
12 20.06 ЮВ 1 1000 м 9/5 300 м
[Cb calv Ac cuf Cs]
+29.0 +23.0 70 +39 +39 очень
душно
1007.5 1005.6 +31.0 2
15 20.06 штиль 0 <100 м 10/5 300 м
[Cb calv Ac As Cs]
+27.0 +24.0 84 +37 +37 очень
душно
1009.0 1007.0
00 21.06 штиль 0 1000 м в посл. час морось 9/5 300 м
[Cb calv Ac cuf Cs]
+25.0 +23.3 90 +33 +34 очень
душно
1008.7 1006.7 +23.5 1
03 21.06 ЮВ 1 4000 м {морось} 6/4 300 м
[Cb calv Cs]
+29.5 +26.2 82 +45 +54 опасность
перегрева
1009.1 1007.2
06 21.06 ЮЗ 2 4000 м {морось} 8/4 300 м
[Cb calv Ac cuf Cs]
+31.5 +26.6 75 +48 +57 опасность
перегрева
1008.3 1006.4
09 21.06 ЮЗ 2 4000 м 8/4 300 м
[Cb calv Ac cuf Cs]
+32.0 +26.5 73 +49 +52 опасность
перегрева
1006.8 1004.9
12 21.06 штиль 0 2000 м 8/4 300 м
[Cb calv Ac cuf Cs]
+30.0 +25.3 76 +44 +44 опасность
перегрева
1006.3 1004.4 +32.5 2
15 21.06 штиль 0 <100 м 8/4 300 м
[Cb calv Ac cuf Cs]
+27.5 +26.2 93 +42 +42 опасность
перегрева
1008.2 1006.3
00 22.06 штиль 0 1000 м 6/4 300 м
[Cb calv Cs]
+25.5 +24.8 96 +36 +37 очень
душно
1007.8 1005.8 +23.5
03 22.06 ЮЗ 1 1000 м слаб. морось {дождь} 10/5 300 м
[Cb calv Ac As Cs]
+28.0 +25.9 88 +42 +46 опасность
перегрева
1008.7 1006.8
06 22.06 СЗ 1 2000 м {морось} 9/5 300 м
[Cb calv Ac As Cs]
+31.5 +26.0 73 +47 +55 опасность
перегрева
1006.9 1005.0
09 22.06 ЮЗ 1 2000 м 9/5 300 м
[Cb calv Ac cuf Cs]
+32.0 +26.5 73 +49 +52 опасность
перегрева
1005.4 1003.5
12 22.06 ЮВ 1 2000 м 8/4 300 м
[Cb calv Ac cuf Cs]
+31.0 +26.7 78 +48 +48 опасность
перегрева
1005.4 1003.5 +32.5 4
15 22.06 штиль 0 <100 м 10/5 300 м
[Cb calv Ac As Cs]
+29.0 +25.9 83 +43 +43 опасность
перегрева
1007.0 1005.1
00 23.06 штиль 0 1000 м 9/4 300 м
[Cb calv Ac cuf Cs]
+25.0 +24.2 95 +34 +35 очень
душно
1006.9 1004.9 +24.0
03 23.06 ЮЗ 1 4000 м 6/4 300 м
[Cb calv Ac cuf Cs]
+31.5 +26.0 73 +47 +56 опасность
перегрева
1007.5 1005.6
06 23.06 ЮВ 1 4000 м 6/4 300 м
[Cb calv Ac cuf Cs]
+33.5 +25.8 64 +49 +61 опасность
перегрева
1006.2 1004.3
09 23.06 ЮЗ 2 4000 м 8/4 300 м
[Cb cap Ac cuf Cs]
+34.0 +26.4 65 +51 +54 опасность
перегрева
1004.2 1002.3
12 23.06 ЮЗ 1 1000 м 9/5 300 м
[Cb calv Ac As Cs]
+30.0 +26.0 79 +45 +45 опасность
перегрева
1004.8 1002.9 +34.2
15 23.06 штиль 0 <100 м 8/4 300 м
[Cb calv Ac cuf Cs]
+27.5 +26.2 93 +42 +42 опасность
перегрева
1007.3 1005.4
18 23.06 штиль 0 <50 м 10/5 300 м
[Cb calv Ac As Cs]
+27.0 +25.6 92 +40 +40 очень
душно
1007.7 1005.8
00 24.06 штиль 0 <50 м 10/5 300 м
[Cb calv Ac As Cs]
+27.0 +25.6 92 +40 +40 очень
душно
1007.7 1005.8
03 24.06 ЮЗ 1 1000 м {морось} 10/5 300 м
[Cb calv Ac As Cs]
+28.0 +25.0 84 +40 +45 очень
душно
1009.7 1007.8
06 24.06 ЮЗ 1 2000 м 10/5 300 м
[Cb calv Ac As Cs]
+33.0 +25.8 66 +48 +54 опасность
перегрева
1008.3 1006.4
09 24.06 ЮВ 2 1000 м гроза, ливневой дождь 10/6 300 м
[Cb cap Ac As]
+26.0 +25.6 98 +38 +39 очень
душно
1008.2 1006.2
12 24.06 штиль 0 500 м слаб. морось {гроза} 10/6 300 м
[Cb cap Ac As]
+25.5 +24.8 96 +36 +36 очень
душно
1007.5 1005.5 +31.5 8
15 24.06 штиль 0 <100 м слаб. морось 8/6 300 м
[Cb calv Ac As]
+25.0 +25.0 100 +36 +36 очень
душно
1009.3 1007.3
00 25.06 штиль 0 500 м в посл. час морось 10/5 300 м
[Cb calv Ac As Cs]
+25.0 +23.3 90 +33 +34 очень
душно
1009.0 1007.0 +23.0 3
03 25.06 ЮЗ 1 1000 м слаб. морось 10/5 300 м
[Cb calv Ac As Cs]
+28.0 +25.9 88 +42 +46 опасность
перегрева
1010.6 1008.7
06 25.06 ЮВ 3 500 м {морось} 10/8 300 м
[Cb calv Ac As Cs]
+29.0 +25.9 83 +43 +45 опасность
перегрева
1009.9 1008.0
09 25.06 ЮВ 2 500 м слаб. морось 10/8 300 м
[Cb calv Ac As Cs]
+28.0 +25.9 88 +42 +43 опасность
перегрева
1008.2 1006.3
12 25.06 штиль 0 200 м {морось} 10/8 300 м
[Cb calv Ac As Cs]
+26.5 +25.8 96 +39 +39 очень
душно
1008.4 1006.4 +32.3 3
15 25.06 штиль 0 <100 м 10/8 300 м
[Cb calv Ac As Cs]
+26.0 +25.3 96 +38 +38 очень
душно
1010.0 1008.0

 

Местоположение метеостанции Тавой (Мьянма): широта 14.10 долгота 98.22 высота над уровнем моря 17 м.

В архиве по умолчанию представлена погода в Тавое за последнюю неделю. Архивные данные за месяц целиком и за предыдущие месяцы, начиная с января 2011 года, Вы можете получить, выбрав интересующий диапазон дат из раскрывающегося списка и нажав кнопку "Ввод!".


*Определитесь, кто Вы:
робот инопланетянин человек

Внимание! Время в таблицах - всемирное. Для получения местного времени необходимо прибавить поправку, которая равна 6.5 ч.

Смотрите также архив погоды в соседних городах и на ближайших метеорологических станциях:

Погода в Тхонг Пха Пхум (Таиланд) (85 км)
Погода в Йе (Мьянма) (133 км)
Погода в Канчанабури (Таиланд) (142 км)
Погода в У-Тхонг Агромете (Таиланд) (179 км)
Погода в Накхонпатхоме (Таиланд) (189 км)
Погода в Мьей (Мьянма) (190 км)
Погода в Суфанбури (Таиланд) (210 км)
Погода в Самутсонгкхраме (Таиланд) (210 км)
Погода в Умпханге (Таиланд) (225 км)
Погода в Пхетчабури (Таиланд) (225 км)

Пояснения к столбцам:

Ветер - указаны скорость ветра в м/с - средняя за 10 мин, порывы в срок и между сроками (в фигурных скобках) и направление, откуда дует ветер: С - северный, СВ - северо-восточный, В - восточный, ЮВ - юго-восточный, Ю - южный, ЮЗ - юго-западный, З - западный, СЗ - северо-западный.
Видимость - горизонтальная дальность видимости в метрах или километрах. При видимости от 1 до 10 км при отсутствии осадков обычно наблюдается дымка, при ухудшении видимости до 1 км и менее - туман. В сухую погоду видимость может ухудшаться дымом, пылью или мглою.
Явления - указаны атмосферные явления, наблюдавшиеся в срок или в последний час перед сроком; фигурными скобками обозначены явления, наблюдавшиеся между сроками (за 1-3 часа до срока); квадратными скобками обозначены град или гололедные отложения с указанием их диаметра в мм.
Облачность - указаны через наклонную черту общая и нижняя облачность в баллах и высота нижней границы облаков в метрах; квадратными скобками обозначены формы облаков: Ci - перистые, Cs - перисто-слоистые, Cc - перисто-кучевые, Ac - высококучевые, As - высокослоистые, Sc - слоисто-кучевые, Ns - слоисто-дождевые, Cu - кучевые, Cb - кучево-дождевые. Подробнее классификацию облаков см. в Атласе облаков (PDF).
T - Температура воздуха - температура, измеренная на высоте 2 м над землей.
Td - Температура точки росы - температура, при понижении до которой содержащийся в воздухе водяной пар достигнет насыщения.
f - Относительная влажность воздуха - влажноcть воздуха, измеренная на высоте 2 м над землей.
Te - Эффективная температура - температура, которую ощущает одетый по сезону человек в тени. Характеристика душности погоды. При расчете учитывается влияние влажности воздуха и скорости ветра на теплоощущения человека.
Tes - Эффективная температура на солнце - температура, которую ощущает человек, с поправкой на солнечный нагрев. Характеристика знойности погоды. Зависит от высоты солнца над горизонтом, облачности и скорости ветра. Ночью, в пасмурную погоду, а также при ветре 12 м/с и более поправка равна нулю.
P - Атмосферное давление - приведенное к уровню моря атмосферное давление.
Po - Атмосферное давление - измеренное на уровне метеостанции атмосферное давление.
Tmin - Минимальная температура - минимум температуры воздуха на высоте 2 м над землей.
Tmax - Максимальная температура - максимум температуры воздуха на высоте 2 м над землей.
R - Количество осадков - Количество выпавших осадков за период времени, мм. При наведении курсора мыши на число - период времени, за который выпало указанное количество осадков.
R24 - Количество осадков - Количество выпавших осадков за 24 часа, мм.
S - Снежный покров - Высота снежного покрова, см. При наведении курсора мыши на число - состояние снежного покрова и степень покрытия местности в баллах.